| time (UTC) | temp F | wind direction | speed MPH | gust MPH | rain 1hr in | rain 24hr in | rain mn in | humidity % | barometer mb |
| 20260906225129 | 44 | 310 | 1.0 | 3.0 | 0.00 | 0.00 | 0.00 | 88 | 1015.4 |
| 20260906224608 | 44 | 310 | 2.0 | 3.0 | 0.00 | 0.00 | 0.00 | 88 | 1015.6 |
| 20260906223130 | 44 | 328 | 3.0 | 5.0 | 0.00 | 0.00 | 0.00 | 88 | 1015.9 |
| 20260906222609 | 44 | 305 | 4.0 | 6.0 | 0.00 | 0.00 | 0.00 | 88 | 1015.9 |
| 20260906221130 | 44 | 287 | 3.0 | 4.0 | 0.00 | 0.00 | 0.00 | 87 | 1015.7 |
| 20260906220129 | 45 | 300 | 3.0 | 5.0 | 0.00 | 0.00 | 0.00 | 86 | 1015.6 |
| 20260906215128 | 45 | 281 | 2.0 | 4.0 | 0.00 | 0.00 | 0.00 | 86 | 1015.6 |
| 20260906214605 | 46 | 333 | 2.0 | 3.0 | 0.00 | 0.00 | 0.00 | 86 | 1015.6 |
| 20260906213129 | 46 | 324 | 3.0 | 4.0 | 0.00 | 0.00 | 0.00 | 86 | 1015.6 |
| 20260906212131 | 46 | 329 | 1.0 | 2.0 | 0.00 | 0.00 | 0.00 | 85 | 1015.5 |
| 20260906211126 | 47 | 329 | 2.0 | 4.0 | 0.00 | 0.00 | 0.00 | 85 | 1015.6 |
| 20260906210607 | 47 | 319 | 1.0 | 3.0 | 0.00 | 0.00 | 0.00 | 85 | 1015.6 |
| 20260906205127 | 47 | 319 | 2.0 | 4.0 | 0.00 | 0.00 | 0.00 | 85 | 1015.6 |
| 20260906204612 | 47 | 300 | 2.0 | 4.0 | 0.00 | 0.00 | 0.00 | 85 | 1015.6 |
| 20260906203602 | 48 | 310 | 2.0 | 3.0 | 0.00 | 0.00 | 0.00 | 84 | 1015.6 |
| 20260906202127 | 48 | 314 | 2.0 | 4.0 | 0.00 | 0.00 | 0.00 | 84 | 1015.7 |
| 20260906201126 | 49 | 305 | 0.0 | 1.0 | 0.00 | 0.00 | 0.00 | 84 | 1015.6 |
| 20260906200123 | 49 | 305 | 0.0 | 1.0 | 0.00 | 0.00 | 0.00 | 83 | 1015.5 |
| 20260906195122 | 50 | 305 | 0.0 | 1.0 | 0.00 | 0.00 | 0.00 | 83 | 1015.6 |
| 20260906194604 | 50 | 305 | 2.0 | 3.0 | 0.00 | 0.00 | 0.00 | 83 | 1015.5 |
| 20260906193553 | 50 | 305 | 3.0 | 5.0 | 0.00 | 0.00 | 0.00 | 83 | 1015.4 |
| 20260906192118 | 51 | 286 | 2.0 | 4.0 | 0.00 | 0.00 | 0.00 | 82 | 1015.4 |
| 20260906191119 | 51 | 281 | 2.0 | 3.0 | 0.00 | 0.00 | 0.00 | 82 | 1015.4 |
| 20260906190551 | 51 | 281 | 2.0 | 2.0 | 0.00 | 0.00 | 0.00 | 81 | 1015.4 |
| 20260906185120 | 52 | 281 | 1.0 | 2.0 | 0.00 | 0.00 | 0.00 | 80 | 1015.5 |
| 20260906185055 | 52 | 281 | 0.0 | 0.0 | 0.00 | 0.00 | 0.00 | 80 | 1015.5 |
| 20260906183119 | 53 | 281 | 0.0 | 1.0 | 0.00 | 0.00 | 0.00 | 79 | 1015.4 |
| 20260906182117 | 54 | 281 | 1.0 | 2.0 | 0.00 | 0.00 | 0.00 | 78 | 1015.5 |
| 20260906181116 | 54 | 281 | 2.0 | 3.0 | 0.00 | 0.00 | 0.00 | 77 | 1015.4 |
| 20260906180116 | 55 | 267 | 2.0 | 2.0 | 0.00 | 0.00 | 0.00 | 78 | 1015.3 |
| 20260906175110 | 55 | 267 | 2.0 | 5.0 | 0.00 | 0.00 | 0.00 | 76 | 1015.2 |
| 20260906174112 | 55 | 254 | 4.0 | 7.0 | 0.00 | 0.00 | 0.00 | 75 | 1015.1 |
| 20260906173111 | 55 | 271 | 4.0 | 6.0 | 0.00 | 0.00 | 0.00 | 76 | 1015.1 |
| 20260906172110 | 55 | 261 | 4.0 | 9.0 | 0.00 | 0.00 | 0.00 | 78 | 1015.1 |
| 20260906171111 | 55 | 343 | 1.0 | 3.0 | 0.00 | 0.00 | 0.00 | 81 | 1015.0 |
| 20260906170110 | 56 | 343 | 0.0 | 0.0 | 0.00 | 0.00 | 0.00 | 78 | 1015.0 |
| 20260906165110 | 58 | 343 | 0.0 | 1.0 | 0.00 | 0.00 | 0.00 | 71 | 1014.8 |
| 20260906164110 | 58 | 343 | 0.0 | 1.0 | 0.00 | 0.00 | 0.00 | 71 | 1014.9 |
| 20260906163110 | 58 | 343 | 1.0 | 2.0 | 0.00 | 0.00 | 0.00 | 70 | 1014.9 |
| 20260906162104 | 59 | 343 | 1.0 | 2.0 | 0.00 | 0.00 | 0.00 | 70 | 1014.9 |
| 20260906161104 | 59 | 343 | 0.0 | 1.0 | 0.00 | 0.00 | 0.00 | 67 | 1015.0 |
| 20260906160104 | 62 | 343 | 1.0 | 2.0 | 0.00 | 0.00 | 0.00 | 61 | 1014.9 |
| 20260906155104 | 62 | 343 | 0.0 | 2.0 | 0.00 | 0.00 | 0.00 | 60 | 1014.7 |
| 20260906154104 | 62 | 343 | 2.0 | 3.0 | 0.00 | 0.00 | 0.00 | 59 | 1014.9 |
| 20260906153102 | 63 | 326 | 1.0 | 4.0 | 0.00 | 0.00 | 0.00 | 58 | 1014.8 |
| 20260906152102 | 64 | 61 | 3.0 | 8.0 | 0.00 | 0.00 | 0.00 | 56 | 1014.8 |
| 20260906151539 | 65 | 305 | 6.0 | 13.0 | 0.00 | 0.00 | 0.00 | 53 | 1014.9 |
| 20260906145101 | 65 | 264 | 3.0 | 7.0 | 0.00 | 0.00 | 0.00 | 50 | 1014.8 |
| 20260906144101 | 66 | 276 | 3.0 | 5.0 | 0.00 | 0.00 | 0.00 | 55 | 1014.8 |
| 20260906143101 | 63 | 258 | 4.0 | 9.0 | 0.00 | 0.00 | 0.00 | 56 | 1014.7 |
| 20260906142101 | 64 | 233 | 5.0 | 9.0 | 0.00 | 0.00 | 0.00 | 52 | 1014.8 |
| 20260906141101 | 64 | 310 | 6.0 | 10.0 | 0.00 | 0.00 | 0.00 | 53 | 1014.7 |
| 20260906140104 | 65 | 275 | 6.0 | 10.0 | 0.00 | 0.00 | 0.00 | 51 | 1014.6 |
| 20260906135101 | 64 | 316 | 8.0 | 12.0 | 0.00 | 0.00 | 0.00 | 52 | 1014.6 |
| 20260906134543 | 65 | 294 | 6.0 | 11.0 | 0.00 | 0.00 | 0.00 | 51 | 1014.7 |
| 20260906133101 | 64 | 310 | 7.0 | 12.0 | 0.00 | 0.00 | 0.00 | 52 | 1014.8 |
| 20260906132101 | 65 | 275 | 7.0 | 12.0 | 0.00 | 0.00 | 0.00 | 51 | 1014.7 |
| 20260906131102 | 64 | 300 | 7.0 | 12.0 | 0.00 | 0.00 | 0.00 | 51 | 1014.8 |
| 20260906125101 | 64 | 288 | 7.0 | 11.0 | 0.00 | 0.00 | 0.00 | 50 | 1014.6 |
| 20260906124101 | 65 | 300 | 9.0 | 17.0 | 0.00 | 0.00 | 0.00 | 49 | 1014.6 |
| 20260906123101 | 66 | 280 | 12.0 | 20.0 | 0.00 | 0.00 | 0.00 | 46 | 1014.6 |
| 20260906122101 | 67 | 310 | 8.0 | 17.0 | 0.00 | 0.00 | 0.00 | 47 | 1014.5 |
| 20260906121101 | 66 | 275 | 8.0 | 14.0 | 0.00 | 0.00 | 0.00 | 47 | 1014.5 |
| 20260906115101 | 66 | 292 | 6.0 | 15.0 | 0.00 | 0.00 | 0.00 | 47 | 1014.2 |
| 20260906114546 | 63 | 283 | 11.0 | 15.0 | 0.00 | 0.00 | 0.00 | 47 | 1014.2 |
| 20260906113537 | 66 | 333 | 7.0 | 13.0 | 0.00 | 0.00 | 0.00 | 47 | 1014.2 |
| 20260906112102 | 66 | 274 | 6.0 | 11.0 | 0.00 | 0.00 | 0.00 | 49 | 1014.1 |
| 20260906111101 | 65 | 327 | 6.0 | 13.0 | 0.00 | 0.00 | 0.00 | 55 | 1014.1 |
| 20260906105102 | 65 | 305 | 7.0 | 15.0 | 0.00 | 0.00 | 0.00 | 49 | 1014.1 |
| 20260906104101 | 65 | 327 | 6.0 | 11.0 | 0.00 | 0.00 | 0.00 | 53 | 1014.2 |
| 20260906103101 | 64 | 316 | 7.0 | 15.0 | 0.00 | 0.00 | 0.00 | 55 | 1014.2 |
| 20260906102101 | 63 | 276 | 5.0 | 14.0 | 0.00 | 0.00 | 0.00 | 61 | 1013.9 |
| 20260906101103 | 63 | 254 | 5.0 | 11.0 | 0.00 | 0.00 | 0.00 | 58 | 1013.9 |
| 20260906095101 | 63 | 217 | 6.0 | 11.0 | 0.00 | 0.00 | 0.00 | 57 | 1014.0 |
| 20260906094102 | 64 | 300 | 7.0 | 13.0 | 0.00 | 0.00 | 0.00 | 58 | 1013.9 |
| 20260906093102 | 63 | 289 | 8.0 | 14.0 | 0.00 | 0.00 | 0.00 | 57 | 1013.9 |
| 20260906092101 | 63 | 305 | 6.0 | 12.0 | 0.00 | 0.00 | 0.00 | 59 | 1013.9 |
| 20260906091101 | 62 | 314 | 3.0 | 8.0 | 0.00 | 0.00 | 0.00 | 59 | 1013.9 |
| 20260906085101 | 61 | 223 | 4.0 | 6.0 | 0.00 | 0.00 | 0.00 | 68 | 1013.9 |
| 20260906084101 | 60 | 221 | 4.0 | 8.0 | 0.00 | 0.00 | 0.00 | 68 | 1013.8 |
| 20260906083101 | 59 | 300 | 5.0 | 10.0 | 0.00 | 0.00 | 0.00 | 68 | 1013.7 |
| 20260906082101 | 58 | 262 | 4.0 | 8.0 | 0.00 | 0.00 | 0.00 | 69 | 1013.7 |
| 20260906081100 | 58 | 262 | 4.0 | 8.0 | 0.00 | 0.00 | 0.00 | 70 | 1013.6 |
| 20260906080103 | 57 | 224 | 3.0 | 6.0 | 0.00 | 0.00 | 0.00 | 71 | 1013.6 |
| 20260906075102 | 56 | 300 | 2.0 | 5.0 | 0.00 | 0.00 | 0.00 | 74 | 1013.6 |
| 20260906074102 | 55 | 310 | 1.0 | 3.0 | 0.00 | 0.00 | 0.00 | 76 | 1013.5 |
| 20260906073102 | 54 | 310 | 3.0 | 5.0 | 0.00 | 0.00 | 0.00 | 79 | 1013.5 |
| 20260906072103 | 53 | 278 | 3.0 | 5.0 | 0.00 | 0.00 | 0.00 | 80 | 1013.3 |
| 20260906071102 | 51 | 293 | 3.0 | 5.0 | 0.00 | 0.00 | 0.00 | 82 | 1013.3 |
| 20260906070101 | 50 | 283 | 4.0 | 7.0 | 0.00 | 0.00 | 0.00 | 84 | 1013.2 |
| 20260906065101 | 50 | 295 | 6.0 | 10.0 | 0.00 | 0.00 | 0.00 | 87 | 1013.2 |
| 20260906064541 | 47 | 283 | 5.0 | 9.0 | 0.00 | 0.00 | 0.00 | 94 | 1013.1 |
| 20260906063101 | 44 | 293 | 4.0 | 6.0 | 0.00 | 0.00 | 0.00 | 94 | 1012.9 |
| 20260906062101 | 43 | 294 | 4.0 | 8.0 | 0.00 | 0.00 | 0.00 | 94 | 1012.8 |
| 20260906061540 | 41 | 310 | 2.0 | 4.0 | 0.00 | 0.00 | 0.00 | 93 | 1012.8 |
| 20260906055101 | 39 | 261 | 1.0 | 4.0 | 0.00 | 0.00 | 0.00 | 93 | 1012.8 |
| 20260906054101 | 38 | 229 | 1.0 | 3.0 | 0.00 | 0.00 | 0.00 | 92 | 1012.7 |
| 20260906053103 | 38 | 287 | 1.0 | 2.0 | 0.00 | 0.00 | 0.00 | 92 | 1012.5 |
| 20260906052101 | 38 | 254 | 2.0 | 4.0 | 0.00 | 0.00 | 0.00 | 92 | 1012.6 |
| 20260906051101 | 37 | 238 | 2.0 | 5.0 | 0.00 | 0.00 | 0.00 | 91 | 1012.5 |
| 20260906050544 | 37 | 226 | 2.0 | 4.0 | 0.00 | 0.00 | 0.00 | 91 | 1012.5 |
| 20260906045102 | 37 | 224 | 1.0 | 3.0 | 0.00 | 0.00 | 0.00 | 91 | 1012.3 |
| 20260906045022 | 37 | 235 | 1.0 | 2.0 | 0.00 | 0.00 | 0.00 | 91 | 1012.1 |
| 20260906043101 | 37 | 235 | 1.0 | 2.0 | 0.00 | 0.00 | 0.00 | 91 | 1012.1 |
| 20260906042102 | 38 | 235 | 2.0 | 4.0 | 0.00 | 0.00 | 0.00 | 91 | 1012.0 |
| 20260906041101 | 38 | 269 | 1.0 | 2.0 | 0.00 | 0.00 | 0.00 | 91 | 1011.8 |
| 20260906041034 | 38 | 221 | 1.0 | 2.0 | 0.00 | 0.00 | 0.00 | 91 | 1011.6 |
| 20260906035101 | 38 | 221 | 1.0 | 3.0 | 0.00 | 0.00 | 0.00 | 90 | 1011.6 |
| 20260906034101 | 38 | 305 | 2.0 | 3.0 | 0.00 | 0.00 | 0.00 | 90 | 1011.6 |
| 20260906033059 | 38 | 305 | 1.0 | 3.0 | 0.00 | 0.00 | 0.00 | 91 | 1011.3 |
| 20260906032058 | 39 | 305 | 0.0 | 0.0 | 0.00 | 0.00 | 0.00 | 90 | 1011.2 |
| 20260906031056 | 39 | 305 | 0.0 | 0.0 | 0.00 | 0.00 | 0.00 | 90 | 1011.3 |
| 20260906031006 | 39 | 305 | 1.0 | 3.0 | 0.00 | 0.00 | 0.00 | 90 | 1011.2 |
| 20260906025539 | 39 | 305 | 2.0 | 3.0 | 0.00 | 0.00 | 0.00 | 90 | 1011.1 |
| 20260906024055 | 39 | 274 | 3.0 | 4.0 | 0.00 | 0.00 | 0.00 | 90 | 1011.0 |
| 20260906023055 | 40 | 290 | 2.0 | 4.0 | 0.00 | 0.00 | 0.00 | 90 | 1010.8 |
| 20260906022056 | 40 | 279 | 3.0 | 4.0 | 0.00 | 0.00 | 0.00 | 90 | 1010.7 |
| 20260906021054 | 40 | 219 | 1.0 | 3.0 | 0.00 | 0.00 | 0.00 | 90 | 1010.5 |
| 20260906020055 | 40 | 250 | 2.0 | 4.0 | 0.00 | 0.00 | 0.00 | 90 | 1010.3 |
| 20260906015056 | 40 | 239 | 3.0 | 6.0 | 0.00 | 0.00 | 0.00 | 90 | 1010.3 |
| 20260906014055 | 41 | 210 | 2.0 | 4.0 | 0.00 | 0.00 | 0.00 | 90 | 1010.2 |
| 20260906013055 | 41 | 239 | 2.0 | 4.0 | 0.00 | 0.00 | 0.00 | 90 | 1010.1 |
| 20260906012054 | 41 | 286 | 3.0 | 5.0 | 0.00 | 0.00 | 0.00 | 90 | 1010.0 |
| 20260906011530 | 41 | 318 | 3.0 | 6.0 | 0.00 | 0.00 | 0.00 | 90 | 1009.8 |
| 20260906010054 | 41 | 305 | 3.0 | 6.0 | 0.00 | 0.00 | 0.00 | 90 | 1009.7 |
| 20260906005055 | 42 | 255 | 4.0 | 7.0 | 0.00 | 0.00 | 0.00 | 90 | 1009.6 |
| 20260906004528 | 42 | 266 | 3.0 | 8.0 | 0.00 | 0.00 | 0.00 | 89 | 1009.4 |
| 20260906003053 | 42 | 292 | 3.0 | 5.0 | 0.00 | 0.00 | 0.00 | 89 | 1009.4 |
| 20260906002053 | 42 | 251 | 1.0 | 4.0 | 0.00 | 0.00 | 0.00 | 89 | 1009.3 |
| 20260906001052 | 42 | 354 | 3.0 | 8.0 | 0.00 | 0.00 | 0.00 | 89 | 1009.2 |
| 20260906000050 | 43 | 300 | 2.0 | 4.0 | 0.00 | 0.00 | 0.00 | 90 | 1009.0 |
| 20260905235051 | 43 | 300 | 4.0 | 8.0 | 0.00 | 0.00 | 0.00 | 90 | 1008.8 |
| 20260905234046 | 43 | 274 | 4.0 | 8.0 | 0.00 | 0.00 | 0.00 | 89 | 1008.7 |
| 20260905234012 | 43 | 300 | 4.0 | 10.0 | 0.00 | 0.00 | 0.00 | 89 | 1008.7 |
| 20260905232047 | 43 | 294 | 4.0 | 9.0 | 0.00 | 0.00 | 0.00 | 89 | 1008.5 |
| 20260905232015 | 44 | 305 | 4.0 | 8.0 | 0.00 | 0.00 | 0.00 | 88 | 1008.4 |
| 20260905230045 | 44 | 0 | 4.0 | 9.0 | 0.00 | 0.00 | 0.00 | 89 | 1008.3 |